• In India
  • List of Countries
  • For 7 days
  • Water Temperature
  • Satellite Maps
  • Weather Map
  • Weather Widgets
  • user-avatar
    Login

    Hourly Weather Mayrhofen

    Today, 11 December, Monday

    Time Temperature Precipitation Wind Pressure Humidity
    00:00 -9°C° 0 mm 4 mps 600 mmHg 86%
    01:00 -9°C° 0 mm 4 mps 600 mmHg 86%
    02:00 -8°C° 0 mm 4 mps 600 mmHg 87%
    03:00 -8°C° 0 mm 4 mps 600 mmHg 87%
    04:00 -7°C° 0 mm 4 mps 600 mmHg 88%
    05:00 -7°C° 0.1 mm 4 mps 599 mmHg 88%
    06:00 -5°C° 0.1 mm 4 mps 599 mmHg 89%
    07:00 -4°C° 0.1 mm 4 mps 599 mmHg 89%
    08:00 -4°C° 0.2 mm 4 mps 599 mmHg 89%
    09:00 -4°C° 0.2 mm 5 mps 599 mmHg 88%
    10:00 -2°C° 0.2 mm 5 mps 599 mmHg 88%
    11:00 -1°C° 0.2 mm 5 mps 599 mmHg 89%
    12:00 -1°C° 0.2 mm 5 mps 599 mmHg 89%
    13:00 0°C° 0.2 mm 5 mps 599 mmHg 90%
    14:00 0°C° 0.2 mm 5 mps 599 mmHg 90%
    15:00 0°C° 0.2 mm 5 mps 598 mmHg 91%
    16:00 -1°C° 0.2 mm 5 mps 598 mmHg 91%
    17:00 -1°C° 0.4 mm 5 mps 599 mmHg 92%
    18:00 -1°C° 0.4 mm 4 mps 599 mmHg 92%
    19:00 -2°C° 0.4 mm 4 mps 599 mmHg 93%
    20:00 -2°C° 1.2 mm 4 mps 600 mmHg 93%
    21:00 -2°C° 1.2 mm 4 mps 600 mmHg 94%
    22:00 -1°C° 1.2 mm 3 mps 601 mmHg 95%
    23:00 -1°C° 2.1 mm 3 mps 601 mmHg 95%

    Tomorrow, 12 December, Tuesday

    Time Temperature Precipitation Wind Pressure Humidity
    00:00 -1°C° 2.1 mm 3 mps 601 mmHg 96%
    01:00 -2°C° 2.1 mm 3 mps 601 mmHg 96%
    02:00 -2°C° 2 mm 3 mps 602 mmHg 96%
    03:00 -2°C° 2 mm 2 mps 602 mmHg 97%
    04:00 -2°C° 2 mm 2 mps 602 mmHg 97%
    05:00 -2°C° 1.4 mm 2 mps 603 mmHg 97%
    06:00 -2°C° 1.4 mm 2 mps 604 mmHg 97%
    07:00 -3°C° 1.4 mm 2 mps 605 mmHg 97%
    08:00 -3°C° 1 mm 2 mps 606 mmHg 97%
    09:00 -3°C° 1 mm 2 mps 607 mmHg 97%
    10:00 -4°C° 1 mm 2 mps 608 mmHg 96%
    11:00 -2°C° 0.8 mm 1 mps 608 mmHg 96%
    12:00 -2°C° 0.8 mm 1 mps 608 mmHg 96%
    13:00 -3°C° 0.8 mm 1 mps 609 mmHg 95%
    14:00 -3°C° 0.5 mm 1 mps 609 mmHg 95%
    15:00 -4°C° 0.5 mm 1 mps 609 mmHg 96%
    16:00 -7°C° 0.5 mm 2 mps 609 mmHg 96%
    17:00 -7°C° 0.3 mm 2 mps 610 mmHg 96%
    18:00 -8°C° 0.3 mm 2 mps 610 mmHg 95%
    19:00 -9°C° 0.3 mm 2 mps 610 mmHg 95%
    20:00 -9°C° 0.2 mm 2 mps 611 mmHg 94%
    21:00 -9°C° 0.2 mm 2 mps 611 mmHg 94%
    22:00 -9°C° 0.2 mm 2 mps 612 mmHg 93%
    23:00 -9°C° 0.2 mm 2 mps 612 mmHg 93%

    Day after tomorrow, 13 December, Wednesday

    Time Temperature Precipitation Wind Pressure Humidity
    00:00 -9°C° 0.2 mm 2 mps 612 mmHg 92%
    01:00 -10°C° 0.2 mm 2 mps 613 mmHg 91%
    02:00 -10°C° 0.1 mm 1 mps 612 mmHg 91%
    03:00 -10°C° 0.1 mm 1 mps 612 mmHg 90%
    04:00 -11°C° 0.1 mm 1 mps 612 mmHg 90%
    05:00 -12°C° 0 mm 1 mps 612 mmHg 89%
    06:00 -12°C° 0 mm 1 mps 612 mmHg 88%
    07:00 -13°C° 0 mm 1 mps 612 mmHg 87%
    08:00 -11°C° 0 mm 1 mps 612 mmHg 85%
    09:00 -10°C° 0 mm 1 mps 613 mmHg 83%
    10:00 -8°C° 0 mm 1 mps 613 mmHg 81%
    11:00 -8°C° 0 mm 2 mps 613 mmHg 80%
    12:00 -6°C° 0 mm 2 mps 613 mmHg 79%
    13:00 -5°C° 0 mm 2 mps 613 mmHg 77%
    14:00 -6°C° 0 mm 2 mps 612 mmHg 80%
    15:00 -7°C° 0 mm 2 mps 612 mmHg 83%
    16:00 -7°C° 0 mm 2 mps 611 mmHg 86%
    17:00 -8°C° 0 mm 2 mps 611 mmHg 86%
    18:00 -9°C° 0 mm 3 mps 611 mmHg 86%
    19:00 -9°C° 0 mm 3 mps 611 mmHg 85%
    20:00 -9°C° 0 mm 3 mps 610 mmHg 85%
    21:00 -10°C° 0 mm 3 mps 610 mmHg 84%
    22:00 -9°C° 0 mm 2 mps 610 mmHg 83%
    23:00 -9°C° 0 mm 2 mps 610 mmHg 81%

    14 December, Thursday

    Time Temperature Precipitation Wind Pressure Humidity
    00:00 -8°C° 0 mm 2 mps 610 mmHg 79%
    01:00 -8°C° 0 mm 2 mps 610 mmHg 76%
    02:00 -8°C° 0 mm 2 mps 609 mmHg 75%
    03:00 -8°C° 0 mm 2 mps 609 mmHg 74%
    04:00 -8°C° 0 mm 2 mps 609 mmHg 73%
    05:00 -9°C° 0.2 mm 3 mps 609 mmHg 76%
    06:00 -8°C° 0.2 mm 3 mps 609 mmHg 78%
    07:00 -8°C° 0.2 mm 3 mps 609 mmHg 81%
    08:00 -7°C° 0.6 mm 3 mps 609 mmHg 82%
    09:00 -7°C° 0.6 mm 3 mps 609 mmHg 83%
    10:00 -6°C° 0.6 mm 3 mps 609 mmHg 85%
    11:00 -5°C° 0.5 mm 3 mps 609 mmHg 86%
    12:00 -5°C° 0.5 mm 3 mps 608 mmHg 87%
    13:00 -4°C° 0.5 mm 3 mps 608 mmHg 88%
    14:00 -4°C° 0 mm 3 mps 607 mmHg 89%
    15:00 -5°C° 0 mm 3 mps 607 mmHg 89%
    16:00 -5°C° 0 mm 3 mps 606 mmHg 90%
    17:00 -6°C° 0 mm 3 mps 606 mmHg 90%
    18:00 -6°C° 0 mm 3 mps 605 mmHg 90%
    19:00 -7°C° 0 mm 3 mps 605 mmHg 90%
    20:00 -7°C° 0 mm 3 mps 604 mmHg 89%
    21:00 -7°C° 0 mm 4 mps 604 mmHg 89%
    22:00 -7°C° 0 mm 4 mps 604 mmHg 88%
    23:00 -7°C° 0.1 mm 4 mps 604 mmHg 89%

    15 December, Friday

    Time Temperature Precipitation Wind Pressure Humidity
    00:00 -7°C° 0.1 mm 4 mps 604 mmHg 90%
    01:00 -6°C° 0.1 mm 3 mps 604 mmHg 91%
    02:00 -6°C° 0.6 mm 3 mps 604 mmHg 93%
    03:00 -5°C° 0.6 mm 2 mps 604 mmHg 95%
    04:00 -3°C° 0.6 mm 1 mps 604 mmHg 96%
    05:00 -4°C° 0.6 mm 1 mps 604 mmHg 96%
    06:00 -4°C° 0.6 mm 1 mps 605 mmHg 96%
    07:00 -4°C° 0.6 mm 1 mps 605 mmHg 96%
    08:00 -4°C° 0.5 mm 1 mps 605 mmHg 96%
    09:00 -4°C° 0.5 mm 1 mps 605 mmHg 95%
    10:00 -4°C° 0.5 mm 1 mps 605 mmHg 94%
    11:00 -4°C° 0.5 mm 1 mps 605 mmHg 93%
    12:00 -3°C° 0.5 mm 1 mps 605 mmHg 93%
    13:00 -3°C° 0.5 mm 1 mps 604 mmHg 92%
    14:00 -4°C° 0.7 mm 1 mps 604 mmHg 93%
    15:00 -6°C° 0.7 mm 2 mps 604 mmHg 94%
    16:00 -7°C° 0.7 mm 2 mps 603 mmHg 95%
    17:00 -7°C° 0.4 mm 2 mps 603 mmHg 95%
    18:00 -8°C° 0.4 mm 2 mps 603 mmHg 95%
    19:00 -8°C° 0.4 mm 2 mps 603 mmHg 94%
    20:00 -8°C° 0.4 mm 2 mps 603 mmHg 94%
    21:00 -8°C° 0.4 mm 2 mps 604 mmHg 94%
    22:00 -8°C° 0.4 mm 2 mps 604 mmHg 93%
    23:00 -9°C° 0.3 mm 2 mps 604 mmHg 92%

    16 December, Saturday

    Time Temperature Precipitation Wind Pressure Humidity
    00:00 -9°C° 0.3 mm 2 mps 604 mmHg 91%
    01:00 -10°C° 0.3 mm 2 mps 604 mmHg 90%
    02:00 -10°C° 0.2 mm 2 mps 603 mmHg 90%
    03:00 -10°C° 0.2 mm 2 mps 603 mmHg 89%
    04:00 -12°C° 0.2 mm 2 mps 603 mmHg 89%
    05:00 -12°C° 0.1 mm 2 mps 603 mmHg 88%
    06:00 -12°C° 0.1 mm 2 mps 604 mmHg 87%
    07:00 -12°C° 0.1 mm 2 mps 604 mmHg 86%
    08:00 -12°C° 0.1 mm 2 mps 604 mmHg 86%
    09:00 -10°C° 0.1 mm 2 mps 605 mmHg 86%
    10:00 -10°C° 0.1 mm 2 mps 606 mmHg 86%
    11:00 -9°C° 0.2 mm 2 mps 606 mmHg 86%
    12:00 -10°C° 0.2 mm 3 mps 607 mmHg 87%
    13:00 -9°C° 0.2 mm 3 mps 607 mmHg 88%
    14:00 -10°C° 0.2 mm 3 mps 607 mmHg 89%
    15:00 -10°C° 0.2 mm 3 mps 608 mmHg 90%
    16:00 -10°C° 0.2 mm 3 mps 608 mmHg 92%
    17:00 -12°C° 0.3 mm 3 mps 608 mmHg 92%
    18:00 -10°C° 0.3 mm 2 mps 609 mmHg 93%
    19:00 -12°C° 0.3 mm 2 mps 609 mmHg 93%
    20:00 -12°C° 0.1 mm 2 mps 609 mmHg 93%
    21:00 -13°C° 0.1 mm 2 mps 609 mmHg 93%
    22:00 -14°C° 0.1 mm 2 mps 610 mmHg 93%
    23:00 -14°C° 0 mm 2 mps 609 mmHg 92%
    Show more